Location: Northcutt
(34.7304°N, 84.4305°W)
Time: 05:02:52
(UTC+00:00)

Vanguard 2 - Pass Details

Date: 05 October 2022
Orbit: 553 x 2933 km, 32.9° (Epoch: 05 December)

Event Time Altitude Azimuth Distance (km) Brightness Sun altitude
Rises 17:21:50 0° 238° (WSW) 4,071 11.5 50.3°
Reaches altitude 10° 17:24:12 10° 234° (SW) 3,357 11.3 50.3°
Maximum altitude 17:32:58 62° 156° (SSE) 2,059 11.5 50.3°
Drops below altitude 10° 17:47:25 10° 81° (E) 5,316 11.8 50.0°
Sets 17:52:12 0° 79° (E) 6,556 12.1 49.9°
